Date String (YYYY-MM-DD hh:mm:ss) UTC,Instrument flags,Ambient pressure (hPa),Sample flow (lpm),Bypass flow (lpm),Sample temperature (°C),Ambient temperature (°C),ASC tube jacket temperature (°C),LED temperature (°C),Box temperature (°C),Sample RH (%),Span deviation,Mass concentration (μg/m³),Mass concentration (μg/m³),Mass concentration (μg/m³)
DateTimeUTC,F1_M11,P_M11,Q1_M11,Q2_M11,T1_M11,T2_M11,T3_M11,T4_M11,T5_M11,U1_M11,ZSPAN_M11,X0_M11,X2_M11,X1_M11
2022-08-28 09:00:00,,0820.9,5.00,0.00,30.2,29.1,00.0,38.9,32.1,15.1,0000.0,0006.91,0003.76,0003.25
2022-08-28 09:01:00,,0820.9,5.00,0.00,30.2,28.2,00.0,38.9,32.0,15.1,0000.0,0007.20,0003.77,0003.26
2022-08-28 09:02:00,,0821.0,5.00,0.00,30.2,27.2,00.0,38.9,32.0,15.2,0000.0,0007.19,0003.71,0003.26
2022-08-28 09:03:00,,0820.9,4.99,0.00,30.2,27.2,00.0,38.9,31.9,15.2,0000.0,0006.88,0003.67,0003.27
2022-08-28 09:04:00,,0820.9,5.01,0.00,30.1,27.4,00.0,38.8,31.8,15.4,0000.0,0006.69,0003.65,0003.28
2022-08-28 09:05:00,,0820.9,5.01,0.00,30.0,27.7,00.0,38.8,31.7,15.5,0000.0,0006.92,0003.66,0003.29
2022-08-28 09:06:00,,0820.9,5.00,0.00,30.0,27.9,00.0,38.8,31.7,15.6,0000.0,0006.67,0003.65,0003.30
2022-08-28 09:07:00,,0820.9,5.00,0.00,30.0,28.1,00.0,38.8,31.8,15.6,0000.0,0006.44,0003.62,0003.31
2022-08-28 09:08:00,,0820.9,4.98,0.00,30.0,28.3,00.0,38.8,31.8,15.6,0000.0,0006.37,0003.61,0003.31
2022-08-28 09:09:00,,0820.9,4.99,0.00,30.0,28.4,00.0,38.8,31.8,15.6,0000.0,0006.78,0003.64,0003.32
2022-08-28 09:10:00,,0820.9,5.01,0.00,30.0,28.5,00.0,38.8,31.8,15.6,0000.0,0006.77,0003.63,0003.32
2022-08-28 09:11:00,,0820.9,4.99,0.00,30.0,28.6,00.0,38.8,31.8,15.6,0000.0,0006.83,0003.65,0003.33
2022-08-28 09:12:00,,0820.9,5.00,0.00,30.0,28.7,00.0,38.8,31.8,15.6,0000.0,0006.68,0003.67,0003.33
2022-08-28 09:13:00,,0820.9,5.01,0.00,30.0,28.7,00.0,38.8,31.9,15.6,0000.0,0006.80,0003.72,0003.33
2022-08-28 09:14:00,,0820.9,5.00,0.00,30.0,28.8,00.0,38.8,31.9,15.6,0000.0,0006.97,0003.76,0003.33
2022-08-28 09:15:00,,0820.9,5.01,0.00,30.1,28.8,00.0,38.8,31.9,15.6,0000.0,0007.20,0003.80,0003.34
2022-08-28 09:16:00,,0820.9,4.99,0.00,30.1,28.9,00.0,38.8,31.9,15.7,0000.0,0007.38,0003.85,0003.34
2022-08-28 09:17:00,,0820.9,5.01,0.00,30.1,28.9,00.0,38.8,32.0,15.7,0000.0,0007.61,0003.90,0003.33
2022-08-28 09:18:00,,0820.9,5.00,0.00,30.1,29.0,00.0,38.9,32.0,15.7,0000.0,0007.65,0003.92,0003.33
2022-08-28 09:19:00,,0820.9,5.00,0.00,30.1,29.0,00.0,38.9,32.0,15.7,0000.0,0007.81,0003.94,0003.33
2022-08-28 09:20:00,,0820.9,5.00,0.00,30.2,29.0,00.0,38.9,32.0,15.7,0000.0,0007.72,0003.93,0003.32
2022-08-28 09:21:00,,0821.0,5.01,0.00,30.2,29.1,00.0,38.9,32.0,15.7,0000.0,0007.82,0003.93,0003.33
2022-08-28 09:22:00,,0821.0,4.99,0.00,30.2,29.1,00.0,38.9,32.0,15.6,0000.0,0007.84,0003.94,0003.32
2022-08-28 09:23:00,,0821.0,5.00,0.00,30.2,29.2,00.0,38.9,32.1,15.7,0000.0,0008.12,0003.94,0003.32
2022-08-28 09:24:00,,0820.9,5.00,0.00,30.2,28.9,00.0,39.0,32.1,15.7,0000.0,0008.13,0003.94,0003.33
2022-08-28 09:25:00,,0820.9,5.01,0.00,30.2,27.5,00.0,38.9,32.0,15.8,0000.0,0008.47,0003.96,0003.33
2022-08-28 09:26:00,,0820.9,4.99,0.00,30.2,27.1,00.0,38.9,31.9,15.8,0000.0,0008.40,0003.94,0003.34
2022-08-28 09:27:00,,0820.9,5.01,0.00,30.1,27.3,00.0,38.8,31.8,15.9,0000.0,0008.26,0003.90,0003.34
2022-08-28 09:28:00,,0820.9,4.99,0.00,30.0,27.5,00.0,38.8,31.7,16.0,0000.0,0008.01,0003.84,0003.33
2022-08-28 09:29:00,,0820.9,5.01,0.00,30.0,27.8,00.0,38.8,31.7,16.0,0000.0,0007.93,0003.82,0003.33
2022-08-28 09:30:00,,0820.9,4.99,0.00,30.0,28.0,00.0,38.8,31.7,16.1,0000.0,0007.96,0003.85,0003.33
2022-08-28 09:31:00,,0821.0,5.00,0.00,30.0,28.2,00.0,38.8,31.7,16.1,0000.0,0007.89,0003.87,0003.33
2022-08-28 09:32:00,,0821.1,5.00,0.00,30.0,28.3,00.0,38.8,31.8,16.0,0000.0,0007.66,0003.86,0003.31
2022-08-28 09:33:00,,0821.0,5.01,0.00,30.0,28.5,00.0,38.8,31.8,16.1,0000.0,0007.53,0003.82,0003.31
2022-08-28 09:34:00,,0821.0,5.01,0.00,30.0,28.6,00.0,38.8,31.8,16.1,0000.0,0007.03,0003.78,0003.31
2022-08-28 09:35:00,,0821.0,4.99,0.00,30.0,28.6,00.0,38.8,31.8,16.0,0000.0,0006.84,0003.76,0003.30
2022-08-28 09:36:00,,0821.0,5.00,0.00,30.0,28.7,00.0,38.8,31.8,16.0,0000.0,0006.26,0003.74,0003.29
2022-08-28 09:37:00,,0821.0,5.01,0.00,30.0,28.7,00.0,38.8,31.8,16.1,0000.0,0006.63,0003.76,0003.28
2022-08-28 09:38:00,,0821.0,4.99,0.00,30.0,28.8,00.0,38.8,31.9,16.1,0000.0,0006.49,0003.72,0003.27
2022-08-28 09:39:00,,0821.0,5.02,0.00,30.1,28.9,00.0,38.8,31.9,16.1,0000.0,0006.74,0003.70,0003.27
2022-08-28 09:40:00,,0821.0,5.00,0.00,30.1,28.9,00.0,38.8,31.9,16.1,0000.0,0007.23,0003.73,0003.27
2022-08-28 09:41:00,,0821.0,5.01,0.00,30.1,28.9,00.0,38.8,32.0,16.2,0000.0,0007.36,0003.75,0003.28
2022-08-28 09:42:00,,0821.0,4.99,0.00,30.1,29.0,00.0,38.9,32.0,16.2,0000.0,0007.27,0003.71,0003.29
2022-08-28 09:43:00,,0821.0,5.00,0.00,30.1,29.0,00.0,38.9,32.0,16.0,0000.0,0007.52,0003.71,0003.30
2022-08-28 09:44:00,,0821.0,5.00,0.00,30.2,29.0,00.0,38.9,32.0,16.1,0000.0,0008.25,0003.74,0003.30
2022-08-28 09:45:00,,0821.0,5.01,0.00,30.2,29.1,00.0,38.9,32.0,16.1,0000.0,0008.29,0003.77,0003.30
2022-08-28 09:46:00,,0821.0,4.99,0.00,30.2,29.1,00.0,38.9,32.0,16.1,0000.0,0008.38,0003.80,0003.30
2022-08-28 09:47:00,,0821.0,5.01,0.00,30.2,29.1,00.0,38.9,32.1,16.0,0000.0,0008.59,0003.77,0003.31
2022-08-28 09:48:00,,0821.0,4.99,0.00,30.2,29.1,00.0,39.0,32.1,15.9,0000.0,0009.45,0003.78,0003.32
2022-08-28 09:49:00,,0821.0,5.01,0.00,30.3,29.1,00.0,39.0,32.1,15.8,0000.0,0009.58,0003.81,0003.33
2022-08-28 09:50:00,,0821.0,5.00,0.00,30.3,28.9,00.0,39.0,32.1,15.8,0000.0,0010.00,0003.83,0003.33
2022-08-28 09:51:00,,0821.0,5.00,0.00,30.3,27.7,00.0,39.0,32.0,15.8,0000.0,0010.94,0003.83,0003.33
2022-08-28 09:52:00,,0821.0,4.99,0.00,30.2,27.2,00.0,38.9,32.0,15.8,0000.0,0010.88,0003.79,0003.32
2022-08-28 09:53:00,,0821.0,5.01,0.00,30.2,27.3,00.0,38.9,31.9,15.7,0000.0,0011.48,0003.80,0003.32
2022-08-28 09:54:00,,0821.0,4.99,0.00,30.1,27.6,00.0,38.9,31.7,15.8,0000.0,0011.64,0003.80,0003.31
2022-08-28 09:55:00,,0821.0,5.00,0.00,30.1,27.8,00.0,38.8,31.7,15.8,0000.0,0011.52,0003.78,0003.32
2022-08-28 09:56:00,,0821.0,5.00,0.00,30.0,28.0,00.0,38.8,31.8,15.9,0000.0,0011.46,0003.75,0003.32
2022-08-28 09:57:00,,0821.0,5.00,0.00,30.0,28.2,00.0,38.8,31.7,16.0,0000.0,0011.49,0003.74,0003.32
2022-08-28 09:58:00,,0821.0,5.01,0.00,30.0,28.4,00.0,38.8,31.7,16.2,0000.0,0011.50,0003.75,0003.31
2022-08-28 09:59:00,,0820.9,5.01,0.00,30.0,28.5,00.0,38.8,31.8,16.1,0000.0,0010.89,0003.74,0003.30
